www.pogodaiklimat.ru
ПОГОДА в Даете
Время
(UTC), дата
03 18.05
06 18.05
09 18.05
12 18.05
15 18.05
18 18.05
21 18.05
00 19.05
06 19.05
09 19.05
12 19.05
15 19.05
18 19.05
21 19.05
00 20.05
03 20.05
06 20.05
09 20.05
12 20.05
15 20.05
18 20.05
21 20.05
00 21.05
03 21.05
06 21.05
09 21.05
12 21.05
15 21.05
18 21.05
21 21.05
00 22.05
03 22.05
06 22.05
09 22.05
12 22.05
15 22.05
18 22.05
21 22.05
00 23.05
03 23.05
06 23.05
09 23.05
12 23.05
15 23.05
18 23.05
21 23.05
00 24.05
03 24.05
06 24.05
09 24.05
12 24.05
15 24.05
18 24.05
21 24.05
00 25.05
Ветер
(напр.,м/с)
Видим. Явления Облачность Т
(С)
Тd
(С)
f
(%)
Тe
(С)
Тes
(С)
Комфортность P
(гПа)
Po
(гПа)
Тmin
(С)
Tmax
(С)
R
(мм)
R24
(мм)
S
(см)
ЮВ 2 18 км 3/3 450 м
[Cu med, cong Ci fib]
+32.7 +27.2 73 +51 +66 опасность
перегрева
1008.1 1007.6
ЮВ 2 15 км гроза, ливневой дождь 8/6 450 м
[Cb cap Cs]
+31.0 +27.7 83 +51 +56 опасность
перегрева
1006.2 1005.7 0.0
В 2 18 км осадки на расстоянии 9/3 450 м
[Cb cap Cs]
+31.0 +28.5 87 +53 +54 опасность
перегрева
1006.4 1005.9
ЮВ 2 4000 м зарница 9/3 450 м
[Cb cap Cs]
+29.6 +27.6 89 +48 +48 опасность
перегрева
1007.3 1006.8 +33.3
З 2 5000 м 1/1 450 м
[Cu med, cong]
+27.4 +24.9 86 +39 +39 очень
душно
1008.8 1008.3
Ю 1 5000 м 1/1 450 м
[Cu med, cong]
+26.4 +24.7 90 +37 +37 очень
душно
1007.4 1006.9
Ю 1 10 км 4/1 450 м
[Cu med, cong Ci fib]
+26.3 +25.0 93 +38 +38 очень
душно
1007.3 1006.8
Ю 3 16 км 3/1 450 м
[Cu med, cong Ci fib]
+29.8 +27.5 87 +48 +53 опасность
перегрева
1009.1 1008.6 +25.8 0.0
З 1 15 км гроза, ливневой дождь 9/5 450 м
[Cb cap Ac As]
+31.6 +28.3 83 +53 +57 опасность
перегрева
1007.3 1006.7 0.0
В 1 15 км мгла {туман} 9/3 450 м
[Cu med, cong Cs]
+31.1 +29.7 92 +56 +57 опасность
перегрева
1007.4 1006.9
В 2 5000 м {гроза, ливн. осадки} 5/1 450 м
[Cu med, cong Cs]
+29.7 +26.7 84 +46 +46 опасность
перегрева
1009.0 1008.5 +33.0 0.0
ЮВ 1 5000 м 1/1 450 м
[Cu med, cong]
+28.6 +26.9 91 +45 +45 опасность
перегрева
1009.9 1009.4
Ю 1 5000 м 1/1 450 м
[Cu med, cong]
+27.6 +26.6 94 +42 +42 опасность
перегрева
1008.3 1007.8
Ю 1 10 км 5/1 450 м
[Cu med, cong Ci fib]
+26.7 +25.5 93 +39 +39 очень
душно
1008.2 1007.7
ЮЗ 3 16 км 9/1 450 м
[Cu med, cong Cs]
+29.6 +27.3 87 +47 +52 опасность
перегрева
1010.6 1010.1 +26.2 0.0 0.0
В 2 16 км 4/3 450 м
[Cu med, cong Ci fib]
+33.3 +27.9 73 +53 +68 опасность
перегрева
1009.7 1009.2
С 4 15 км мгла {туман} 6/6 450 м
[Cb calv Cs]
+31.7 +28.6 84 +54 +58 опасность
перегрева
1007.6 1007.1
С 1 15 км мгла {туман} 6/5 450 м
[Cb cap Cs]
+30.6 +26.2 77 +46 +47 опасность
перегрева
1007.8 1007.3
В 2 5000 м 1/1 450 м
[Cu med, cong]
+29.8 +26.4 82 +46 +46 опасность
перегрева
1010.0 1009.5 +34.0
ЮВ 1 5000 м зарница 1/1 450 м
[Cb cap]
+29.2 +27.1 88 +46 +46 опасность
перегрева
1010.5 1010.0
Ю 1 5000 м зарница 1/1 450 м
[Cb cap]
+28.1 +26.8 93 +44 +44 опасность
перегрева
1008.5 1008.0
Ю 1 9000 м 8/1 450 м
[Cu med, cong Cs]
+26.4 +24.9 91 +38 +38 очень
душно
1008.6 1008.1
Ю 2 20 км мгла {туман} 9/1 450 м
[Cu med, cong Cs]
+29.4 +26.8 86 +46 +51 опасность
перегрева
1009.9 1009.4 +26.2
СВ 2 20 км мгла {туман} 4/4 450 м
[Cb cap Ac trans]
+31.6 +26.2 73 +48 +60 опасность
перегрева
1010.3 1009.8
С 3 20 км мгла {туман} 1/1 450 м
[Cb cap]
+31.8 +28.0 80 +52 +64 опасность
перегрева
1007.3 1006.8
С 3 15 км гроза без осадков {туман} 6/6 450 м
[Cb cap Cs]
+31.2 +26.6 77 +48 +49 опасность
перегрева
1006.9 1006.4
Ю 1 4000 м зарница {гроза, туман} 5/4 450 м
[Cb cap Cs]
+27.4 +24.2 83 +38 +38 очень
душно
1009.7 1009.2 +33.0
З 1 5000 м 1/1 450 м
[Cu med, cong]
+27.2 +25.6 91 +40 +40 очень
душно
1010.4 1009.9
Ю 1 5000 м 1/1 450 м
[Cu med, cong]
+26.5 +25.3 93 +38 +38 очень
душно
1008.4 1007.9
Ю 1 10 км 1/1 450 м
[Cu med, cong]
+26.3 +25.1 93 +38 +38 очень
душно
1007.7 1007.2
Ю 2 20 км мгла {туман} 3/3 450 м
[Cb cap Ci fib]
+29.8 +27.2 86 +47 +53 опасность
перегрева
1009.6 1009.1 +26.0
В 1 20 км мгла {туман} 4/3 450 м
[Cb cap Cs]
+32.9 +28.1 76 +54 +71 опасность
перегрева
1009.6 1009.1
Ю 4 20 км мгла {туман} 10/4 450 м
[Cu med, cong Cs]
+34.2 +27.9 70 +55 +60 опасность
перегрева
1007.2 1006.7
ЮВ 1 15 км мгла {туман} 10/5 450 м
[Cb cap Cs]
+32.2 +27.6 77 +52 +53 опасность
перегрева
1006.3 1005.8
Ю 1 5000 м 1/1 450 м
[Cu med, cong]
+29.7 +25.8 80 +44 +44 опасность
перегрева
1009.2 1008.7 +35.0
Ю 1 5000 м 1/1 450 м
[Cu med, cong]
+27.8 +25.4 87 +41 +41 опасность
перегрева
1010.8 1010.3
Ю 2 5000 м зарница 1/1 450 м
[Cb cap]
+27.0 +24.9 88 +39 +39 очень
душно
1008.7 1008.2
Ю 3 9000 м 6/1 450 м
[Cu med, cong Cs]
+27.0 +25.7 93 +40 +40 очень
душно
1008.0 1007.5
Ю 3 18 км 6/3 450 м
[Cu med, cong Ci sp]
+30.0 +27.4 86 +48 +52 опасность
перегрева
1010.3 1009.8 +27.0
Ю 4 18 км 9/3 450 м
[Cu med, cong Cs]
+32.8 +28.3 77 +54 +62 опасность
перегрева
1009.3 1008.8
Ю 4 18 км 8/4 450 м
[Cb cap Cs]
+34.0 +29.0 75 +57 +63 опасность
перегрева
1008.1 1007.6
Ю 4 18 км 10/3 450 м
[Cb cap Cs]
+31.8 +28.5 83 +54 +54 опасность
перегрева
1007.9 1007.4
Ю 3 5000 м зарница 8/4 450 м
[Cb cap Ac trans]
+28.8 +26.5 87 +44 +44 опасность
перегрева
1011.3 1010.8 +34.6
СЗ 1 5000 м зарница 6/3 450 м
[Cb cap Ac trans]
+27.9 +24.3 81 +39 +39 очень
душно
1012.0 1011.5
Ю 1 4000 м осадки на расстоянии 8/4 450 м
[Cu Sc Ac trans]
+25.7 +23.8 89 +35 +35 очень
душно
1009.4 1008.9
Ю 2 10 км 9/3 450 м
[Cu med, cong Ac trans Cs]
+25.5 +23.8 90 +35 +35 очень
душно
1008.6 1008.1
Ю 2 16 км 8/3 450 м
[Cu med, cong Ci sp]
+29.6 +27.6 89 +48 +52 опасность
перегрева
1011.5 1011.0 +26.0
Ю 3 18 км 8/3 450 м
[Cu med, cong Ci sp]
+33.0 +29.3 81 +58 +68 опасность
перегрева
1011.2 1010.7
СЗ 3 15 км осадки на расстоянии 8/5 450 м
[Cb calv Cs]
+31.6 +28.3 83 +53 +59 опасность
перегрева
1010.2 1009.7
ЮВ 2 10 км гроза, ливневой дождь 10/6 450 м
[Cb calv As op]
+27.4 +26.6 95 +42 +42 опасность
перегрева
1011.1 1010.6 8
З 1 5000 м зарница {гроза, дождь} 9/3 450 м
[Cb cap Ac As]
+26.4 +25.6 95 +39 +39 очень
душно
1012.4 1011.9 +33.5 10
З 1 4000 м зарница 4/3 450 м
[Cb cap Ac trans]
+26.6 +24.5 88 +37 +37 очень
душно
1013.7 1013.2
ЮЗ 1 4000 м осадки на расстоянии 5/4 450 м
[Cu Sc Ac trans]
+25.5 +24.3 93 +35 +35 очень
душно
1011.8 1011.3
Ю 1 10 км 4/3 450 м
[Cu med, cong Ac trans Ci fib]
+25.8 +23.6 88 +35 +35 очень
душно
1011.9 1011.4
Ю 2 16 км 9/3 450 м
[Cu med, cong Cs]
+28.6 +27.3 93 +46 +50 опасность
перегрева
1012.5 1012.0 +25.5 10 10.4
Местоположение метеостанции Дает (Филиппины): широта 14.13 долгота 122.98 высота над уровнем моря 4 м.
В архиве по умолчанию представлена погода в Даете за последнюю неделю. Архивные данные за месяц целиком и за предыдущие месяцы, начиная с января 2011 года, Вы можете получить, выбрав интересующий диапазон дат из раскрывающегося списка и нажав кнопку "Найти!".
*Определитесь, кто Вы:
Внимание! Время в таблицах - всемирное. Для получения местного времени необходимо прибавить поправку, которая равна 8 ч.
Смотрите также архив погоды в соседних городах и на ближайших метеорологических станциях:
Партнеры нашего сайта:      
Пояснения к столбцам:
  • Ветер - указаны скорость ветра в м/с - средняя за 10 мин, порывы в срок и между сроками (в фигурных скобках) и направление, откуда дует ветер: С - северный,
  • СВ - северо-восточный, В - восточный, ЮВ - юго-восточный, Ю - южный, ЮЗ - юго-западный, З - западный, СЗ - северо-западный.
  • Видимость - горизонтальная дальность видимости в метрах или километрах. При видимости от 1 до 10 км при отсутствии осадков обычно наблюдается дымка, при ухудшении видимости до 1 км и менее - туман. В сухую погоду видимость может ухудшаться дымом, пылью или мглою.
  • Явления - указаны атмосферные явления, наблюдавшиеся в срок или в последний час перед сроком; фигурными скобками обозначены явления, наблюдавшиеся между сроками (за 1-3 часа до срока); квадратными скобками обозначены град или гололедные отложения с указанием их диаметра в мм.
  • Облачность - указаны через наклонную черту общая и нижняя облачность в баллах и высота нижней границы облаков в метрах; квадратными скобками обозначены формы облаков: Ci - перистые, Cs - перисто-слоистые, Cc - перисто-кучевые, Ac - высококучевые, As - высокослоистые, Sc - слоисто-кучевые, Ns - слоисто-дождевые, Cu - кучевые, Cb - кучево-дождевые. Подробнее классификацию облаков см. в Атласе облаков (PDF).
  • T - Температура воздуха - температура, измеренная на высоте 2 м над землей.
  • Td - Температура точки росы - температура, при понижении до которой содержащийся в воздухе водяной пар достигнет насыщения.
  • f - Относительная влажность воздуха - влажноcть воздуха, измеренная на высоте 2 м над землей.
  • Te - Эффективная температура - температура, которую ощущает одетый по сезону человек в тени. Характеристика душности погоды. При расчете учитывается влияние влажности воздуха и скорости ветра на теплоощущения человека.
  • Tes - Эффективная температура на солнце - температура, которую ощущает человек, с поправкой на солнечный нагрев. Характеристика знойности погоды. Зависит от высоты солнца над горизонтом, облачности и скорости ветра. Ночью, в пасмурную погоду, а также при ветре 12 м/с и более поправка равна нулю.
  • P - Атмосферное давление - приведенное к уровню моря атмосферное давление.
  • Po - Атмосферное давление - измеренное на уровне метеостанции атмосферное давление.
  • Tmin - Минимальная температура - минимум температуры воздуха на высоте 2 м над землей.
  • Tmax - Максимальная температура - максимум температуры воздуха на высоте 2 м над землей.
  • R - Количество осадков - Количество выпавших осадков за период времени, мм. При наведении курсора мыши на число - период времени, за который выпало указанное количество осадков.
  • R24 - Количество осадков - Количество выпавших осадков за 24 часа, мм.
  • S - Снежный покров - Высота снежного покрова, см. При наведении курсора мыши на число - состояние снежного покрова и степень покрытия местности в баллах.